CW8443 Weather Reports


time (UTC)temp
C
wind
direction
speed
KPH
gust
KPH
rain 1hr
cm
rain 24hr
cm
rain mn
cm
humidity
%
barometer
mb
20260504184748 12 300 0.0 0.0 0.00 0.00 0.00 36 1010.7
20260504184241 12 316 0.0 0.0 0.00 0.00 0.00 37 1010.3
20260504183751 12 29 0.0 0.0 0.00 0.00 0.00 38 1010.3
20260504183249 12 313 0.0 0.0 0.00 0.00 0.00 40 1010.3
20260504183137 12 306 0.0 0.0 0.00 0.00 0.00 40 1010.3
20260504182742 12 347 0.0 0.0 0.00 0.00 0.00 40 1010.2
20260504182252 12 2 0.0 0.0 0.00 0.00 0.00 42 1010.2
20260504181745 12 353 0.0 0.0 0.00 0.00 0.00 41 1010.2
20260504181235 12 24 0.0 0.0 0.00 0.00 0.00 41 1009.6
20260504180736 12 326 0.0 0.0 0.00 0.00 0.00 41 1009.6
20260504180254 12 45 0.0 0.0 0.00 0.00 0.00 41 1009.6
20260504180137 12 355 0.0 0.0 0.00 0.00 0.00 41 1009.6
20260504175735 12 326 0.0 0.0 0.00 0.00 0.00 41 1008.9
20260504175247 12 326 0.0 0.0 0.00 0.00 0.00 41 1008.9
20260504174740 12 323 0.0 0.0 0.00 0.00 0.00 41 1008.9
20260504174250 12 322 0.0 0.0 0.00 0.00 0.00 41 1008.4
20260504173739 12 322 0.0 0.0 0.00 0.00 0.00 42 1008.4
20260504173130 12 317 0.0 0.0 0.00 0.00 0.00 43 1008.4
20260504172750 12 320 0.0 0.0 0.00 0.00 0.00 43 1008.3
20260504172238 12 83 0.0 0.0 0.00 0.00 0.00 44 1008.2
20260504170740 12 8 0.0 0.0 0.00 0.00 0.00 44 1007.8
20260504170237 12 336 0.0 0.0 0.00 0.00 0.00 44 1007.8
20260504170141 12 323 0.0 0.0 0.00 0.00 0.00 44 1007.8
20260504160251 12 350 0.0 0.0 0.00 0.00 0.00 43 1006.6
20260504160135 12 55 0.0 0.0 0.00 0.00 0.00 43 1006.6
20260504150744 14 348 0.0 0.0 0.00 0.00 0.00 45 1004.9
20260504150242 14 354 0.0 0.0 0.00 0.00 0.00 45 1004.9
20260504150146 14 322 0.0 0.0 0.00 0.00 0.00 45 1004.9
20260504141250 14 21 0.0 0.0 0.00 0.00 0.28 47 1003.4
20260504140743 15 322 0.0 0.0 0.00 0.00 0.28 47 1003.4
20260504140238 15 353 0.0 0.0 0.00 0.00 0.28 47 1003.4
20260504140142 15 26 0.0 0.0 0.00 0.00 0.28 47 1003.4
20260504130244 15 1 0.0 0.0 0.00 0.00 0.28 45 1001.9
20260504130132 15 316 0.0 0.0 0.00 0.00 0.28 45 1001.9
20260504120242 17 98 0.0 0.0 0.00 0.00 0.28 41 1000.3
20260504120127 17 324 0.0 0.0 0.00 0.00 0.28 41 1000.3
20260504110130 18 5 0.0 0.0 0.00 0.00 0.28 40 997.7
20260504100239 22 53 0.0 0.0 0.00 0.00 0.28 27 995.2
20260504100143 22 11 0.0 0.0 0.00 0.00 0.28 27 995.2
20260504090134 25 73 0.0 0.0 0.00 0.00 0.28 27 993.0
20260504081742 25 113 0.0 0.0 0.00 0.00 0.28 29 991.7
20260504081252 25 113 0.0 0.0 0.00 0.00 0.28 28 991.1
20260504080742 25 220 1.6 0.0 0.00 0.00 0.28 29 991.1
20260504070248 26 228 11.3 0.0 0.00 0.00 0.28 32 990.3
20260504060130 28 197 12.9 0.0 0.00 0.00 0.28 30 989.8
20260504050247 31 298 4.8 0.0 0.00 0.00 0.28 31 989.3
20260504050131 31 298 6.4 0.0 0.00 0.00 0.28 31 989.3
20260504045752 31 309 8.0 0.0 0.00 0.00 0.28 31 989.4
20260504045241 31 18 8.0 0.0 0.00 0.00 0.28 32 989.4
20260504044737 31 271 6.4 0.0 0.00 0.00 0.28 32 989.4
20260504044247 30 52 9.7 0.0 0.00 0.00 0.28 33 989.7
20260504043735 30 84 12.9 0.0 0.00 0.00 0.28 33 989.7
20260504043253 30 101 11.3 0.0 0.00 0.00 0.28 33 989.7
20260504043139 29 97 9.7 0.0 0.00 0.00 0.28 33 989.6
20260504042736 29 115 11.3 0.0 0.00 0.00 0.28 35 989.8
20260504042248 29 130 11.3 0.0 0.00 0.00 0.28 35 989.8
20260504041740 29 106 11.3 0.0 0.00 0.00 0.28 35 989.8
20260504041248 28 111 12.9 0.0 0.00 0.00 0.28 36 990.0
20260504040742 28 145 9.7 0.0 0.00 0.00 0.28 37 990.0
20260504040241 28 151 11.3 0.0 0.00 0.00 0.28 37 990.0
20260504040146 28 125 11.3 0.0 0.00 0.00 0.28 36 990.0
20260504035746 28 169 12.9 0.0 0.00 0.00 0.28 36 990.3
20260504035236 28 156 11.3 0.0 0.00 0.00 0.28 36 990.3
20260504034750 29 162 8.0 0.0 0.00 0.00 0.28 36 990.3
20260504034239 28 146 8.0 0.0 0.00 0.00 0.28 36 990.7
20260504033749 28 154 6.4 0.0 0.00 0.00 0.28 37 990.7
20260504033241 28 214 6.4 0.0 0.00 0.00 0.28 39 990.7
20260504033131 28 235 8.0 0.0 0.00 0.00 0.28 40 990.7
20260504032748 28 228 9.7 0.0 0.00 0.00 0.28 41 990.5
20260504032238 28 166 8.0 0.0 0.00 0.00 0.28 40 990.4
20260504031752 28 159 8.0 0.0 0.00 0.00 0.28 40 990.4
20260504031246 28 89 8.0 0.0 0.00 0.00 0.28 43 990.9
20260504030743 28 172 8.0 0.0 0.00 0.00 0.28 45 990.9
20260504030132 28 152 9.7 0.0 0.00 0.00 0.28 44 990.9
20260504025242 28 120 9.7 0.0 0.00 0.00 0.28 43 991.0
20260504024736 28 138 8.0 0.0 0.00 0.00 0.28 42 991.0
20260504024249 28 122 6.4 0.0 0.00 0.00 0.28 44 991.2
20260504023739 28 137 6.4 0.0 0.00 0.00 0.28 44 991.2
20260504023241 28 131 4.8 0.0 0.00 0.00 0.28 45 991.2
20260504023145 28 149 4.8 0.0 0.00 0.00 0.28 45 991.2
20260504022746 28 151 4.8 0.0 0.00 0.00 0.28 46 991.3
20260504022234 28 117 4.8 0.0 0.00 0.00 0.28 47 991.3
20260504021750 28 134 1.6 0.0 0.00 0.00 0.28 45 991.3
20260504021242 27 97 1.6 0.0 0.00 0.00 0.28 48 991.5
20260504020739 27 55 1.6 0.0 0.00 0.00 0.28 50 991.5
20260504020238 26 67 0.0 0.0 0.00 0.00 0.28 52 991.5
20260504020141 26 67 1.6 0.0 0.00 0.00 0.28 52 991.5
20260504014739 26 250 0.0 0.0 0.00 0.00 0.28 53 991.9
20260504014247 26 14 0.0 0.0 0.00 0.00 0.28 54 992.2
20260504013236 25 12 0.0 0.0 0.00 0.00 0.28 56 992.2
20260504013140 25 12 0.0 0.0 0.00 0.00 0.28 56 992.2
20260504012741 25 2 0.0 0.0 0.00 0.00 0.28 56 992.3
20260504012250 25 353 0.0 0.0 0.00 0.00 0.28 56 992.3
20260504011745 25 5 0.0 0.0 0.00 0.00 0.28 56 992.3
20260504011234 24 35 0.0 0.0 0.00 0.00 0.28 57 992.5
20260504010742 24 10 0.0 0.0 0.00 0.00 0.28 59 992.5
20260504010241 23 14 0.0 0.0 0.00 0.00 0.28 59 992.5
20260504010145 23 25 0.0 0.0 0.00 0.00 0.28 59 992.5
20260504005748 23 355 0.0 0.0 0.00 0.00 0.28 59 992.8
20260504005239 23 1 0.0 0.0 0.00 0.00 0.28 60 992.8
20260504004248 23 38 0.0 0.0 0.00 0.00 0.28 61 992.9
20260504003737 23 42 0.0 0.0 0.00 0.00 0.28 61 992.9
20260504003255 23 336 0.0 0.0 0.00 0.00 0.28 61 992.9
20260504002743 22 21 0.0 0.0 0.00 0.00 0.28 62 992.9
20260504002248 22 36 0.0 0.0 0.00 0.00 0.28 63 992.9
20260504001741 22 351 0.0 0.0 0.00 0.00 0.28 64 992.9
20260504001252 22 53 0.0 0.0 0.00 0.00 0.28 65 992.9
20260504000749 21 347 0.0 0.0 0.00 0.00 0.28 66 992.9
20260504000245 21 329 0.0 0.0 0.00 0.00 0.28 66 992.9
20260504000129 21 327 0.0 0.0 0.00 0.00 0.28 66 992.9
20260503235751 21 19 0.0 0.0 0.00 0.00 0.28 67 992.9
20260503235240 21 26 0.0 0.0 0.00 0.00 0.28 69 992.9
20260503234253 20 10 0.0 0.0 0.00 0.00 0.28 70 992.9
20260503233744 20 22 0.0 0.0 0.00 0.00 0.28 71 992.9
20260503233238 20 42 0.0 0.0 0.00 0.00 0.28 72 992.9
20260503232745 19 360 0.0 0.0 0.00 0.00 0.28 74 993.0
20260503231754 18 358 0.0 0.0 0.00 0.00 0.28 76 992.9
20260503231244 18 320 0.0 0.0 0.00 0.00 0.28 77 992.7
20260503230738 18 343 0.0 0.0 0.00 0.00 0.28 78 992.7
20260503230236 18 25 0.0 0.0 0.00 0.00 0.28 79 992.7
20260503230140 18 22 0.0 0.0 0.00 0.00 0.28 79 992.7
20260503225240 18 355 0.0 0.0 0.00 0.00 0.28 81 992.9
20260503224749 18 1 0.0 0.0 0.00 0.00 0.28 83 992.9
20260503223737 17 344 0.0 0.0 0.00 0.00 0.28 85 992.8
20260503223141 17 19 0.0 0.0 0.00 0.00 0.28 86 992.8
20260503222742 17 21 0.0 0.0 0.00 0.00 0.28 86 992.6
20260503222252 17 35 0.0 0.0 0.00 0.00 0.28 87 992.6
20260503221749 17 336 0.0 0.0 0.00 0.00 0.28 88 992.6
20260503220737 16 333 0.0 0.0 0.00 0.00 0.28 88 992.7
20260503220250 16 360 0.0 0.0 0.00 0.00 0.28 89 992.7
20260503220137 16 19 0.0 0.0 0.00 0.00 0.28 89 992.7
20260503215736 16 344 0.0 0.0 0.00 0.00 0.28 89 992.6
20260503215247 16 45 0.0 0.0 0.00 0.00 0.28 89 992.6
20260503214741 16 337 0.0 0.0 0.00 0.00 0.28 89 992.6
20260503214249 16 330 0.0 0.0 0.00 0.00 0.28 89 992.1
20260503213740 16 334 0.0 0.0 0.00 0.00 0.28 90 992.1
20260503213240 16 355 0.0 0.0 0.00 0.00 0.28 90 992.1
20260503213128 16 5 0.0 0.0 0.00 0.00 0.28 89 992.1
20260503212750 16 5 0.0 0.0 0.00 0.00 0.28 89 991.8
20260503212240 16 327 0.0 0.0 0.00 0.00 0.28 90 991.9
20260503211248 16 319 0.0 0.0 0.00 0.00 0.28 89 991.9
20260503210745 16 313 0.0 0.0 0.00 0.00 0.28 89 991.9
20260503210246 16 331 0.0 0.0 0.00 0.00 0.28 89 991.9
20260503210130 16 316 0.0 0.0 0.00 0.00 0.28 89 991.9
20260503205751 17 334 0.0 0.0 0.00 0.00 0.28 89 991.8
20260503204745 18 341 0.0 0.0 0.00 0.00 0.28 87 991.9
20260503204235 20 125 0.0 0.0 0.00 0.00 0.28 90 991.7
20260503203747 20 125 0.0 0.0 0.00 0.00 0.28 90 991.7
20260503203244 20 125 0.0 0.0 0.00 0.00 0.28 90 991.7
20260503202749 20 175 0.0 0.0 0.00 0.00 0.28 90 991.8
20260503201739 19 265 0.0 0.0 0.00 0.00 0.28 90 991.8
20260503201249 19 257 0.0 0.0 0.00 0.00 0.28 90 992.3
20260503200743 19 186 0.0 0.0 0.00 0.00 0.25 90 992.3
20260503200243 18 128 0.0 0.0 0.00 0.00 0.25 89 992.3
20260503200127 18 127 0.0 0.0 0.00 0.00 0.25 89 992.3
20260503195749 18 128 0.0 0.0 0.00 0.00 0.23 89 992.7
20260503195237 18 138 0.0 0.0 0.00 0.00 0.23 89 992.7
20260503194750 18 138 0.0 0.0 0.00 0.00 0.23 89 992.7
20260503194240 18 137 0.0 0.0 0.00 0.00 0.18 89 992.8
20260503193750 18 138 0.0 0.0 0.00 0.00 0.15 88 992.8
20260503193246 18 138 0.0 0.0 0.00 0.00 0.15 88 992.8
20260503192753 18 138 0.0 0.0 0.00 0.00 0.10 88 993.1
20260503192243 18 138 0.0 0.0 0.00 0.00 0.08 88 993.1
20260503191739 18 138 0.0 0.0 0.00 0.00 0.05 88 993.1
20260503191250 18 113 0.0 0.0 0.00 0.00 0.05 88 993.2
20260503190745 18 124 0.0 0.0 0.00 0.00 0.05 87 993.2
20260503190241 18 130 0.0 0.0 0.00 0.00 0.05 87 993.2
20260503190124 18 128 0.0 0.0 0.00 0.00 0.05 87 993.2
20260503185748 18 125 0.0 0.0 0.00 0.00 0.03 87 993.9